Gonets-M No. 27L

operational
NORAD ID: 46486 Int'l Des: 2020-068 Owner: GONETS Country: RU
LEOCIRCULARPOLAR

About Gonets-M No. 27L

Description loading...

Live Position

Loading 3D Globe...

Upcoming Passes

Altitude History

Altitude vs Time

uPlot chart will show altitude changes over time

Two-Line Element Set

1 46486U 20068A 26101.95949459 .00000000 00000-0 -70788-4 0 9993
2 46486 82.5019 28.6954 0022017 177.1602 182.9606 12.42870442250930
Epoch: Apr 11, 2026 • Age: 8 hours

Current Status

Altitude 1519.3 km
Velocity 7.10 km/s
Sub-Earth Point -23.28°S, 85.34°E
Launch Date Sep 28, 2020
Age 5.5 years
Type other

Technical Details

Classification Payload
Mass 225.00 kg
Dry Mass 225.00 kg
Total Mass 225.00 kg
Length 1.60 m
Diameter 0.80 m
Span 7.00 m
Shape Cyl + Ant
Manufacturer RESH
Bus Type Strela-3M
Phase Status In Orbit
Owner/State GONETS/RU

Large Constellations

Loading constellations...